Year,Month,Day,Hour,Minute,Value (Times are PST for temperature in C)
2014,04,30,00,00,9.20
2014,04,30,00,01,9.20
2014,04,30,00,02,9.20
2014,04,30,00,03,9.20
2014,04,30,00,04,9.20
2014,04,30,00,05,9.20
2014,04,30,00,06,9.10
2014,04,30,00,07,9.10
2014,04,30,00,08,9.10
2014,04,30,00,09,9.10
2014,04,30,00,10,9.10
2014,04,30,00,11,9.10
2014,04,30,00,12,9.10
2014,04,30,00,13,9.10
2014,04,30,00,14,9.10
2014,04,30,00,15,9.10
2014,04,30,00,16,9.00
2014,04,30,00,17,9.00
2014,04,30,00,18,9.00
2014,04,30,00,19,9.00
2014,04,30,00,20,9.00
2014,04,30,00,21,8.90
2014,04,30,00,22,8.90
2014,04,30,00,23,8.90
2014,04,30,00,24,8.90
2014,04,30,00,25,8.90
2014,04,30,00,26,8.90
2014,04,30,00,27,8.80
2014,04,30,00,28,8.80
2014,04,30,00,29,8.80
2014,04,30,00,30,8.80
2014,04,30,00,31,8.80
2014,04,30,00,32,8.80
2014,04,30,00,33,8.70
2014,04,30,00,34,8.70
2014,04,30,00,35,8.70
2014,04,30,00,36,8.70
2014,04,30,00,37,8.70
2014,04,30,00,38,8.60
2014,04,30,00,39,8.60
2014,04,30,00,40,8.60
2014,04,30,00,41,8.60
2014,04,30,00,42,8.60
2014,04,30,00,43,8.50
2014,04,30,00,44,8.50
2014,04,30,00,45,8.50
2014,04,30,00,46,8.50
2014,04,30,00,47,8.40
2014,04,30,00,48,8.40
2014,04,30,00,49,8.40
2014,04,30,00,50,8.40
2014,04,30,00,51,8.40
2014,04,30,00,52,8.40
2014,04,30,00,53,8.30
2014,04,30,00,54,8.30
2014,04,30,00,55,8.30
2014,04,30,00,56,8.30
2014,04,30,00,57,8.30
2014,04,30,00,58,8.30
2014,04,30,00,59,8.30
2014,04,30,01,00,8.30
2014,04,30,01,01,8.30
2014,04,30,01,02,8.30
2014,04,30,01,03,8.30
2014,04,30,01,04,8.30
2014,04,30,01,05,8.30
2014,04,30,01,06,8.30
2014,04,30,01,07,8.30
2014,04,30,01,08,8.30
2014,04,30,01,09,8.30
2014,04,30,01,10,8.30
2014,04,30,01,11,8.30
2014,04,30,01,12,8.30
2014,04,30,01,13,8.30
2014,04,30,01,14,8.30
2014,04,30,01,15,8.30
2014,04,30,01,16,8.30
2014,04,30,01,17,8.30
2014,04,30,01,18,8.30
2014,04,30,01,19,8.30
2014,04,30,01,20,8.30
2014,04,30,01,21,8.30
2014,04,30,01,22,8.30
2014,04,30,01,23,8.30
2014,04,30,01,24,8.30
2014,04,30,01,25,8.30
2014,04,30,01,26,8.30
2014,04,30,01,27,8.30
2014,04,30,01,28,8.30
2014,04,30,01,29,8.30
2014,04,30,01,30,8.30
2014,04,30,01,31,8.30
2014,04,30,01,32,8.30
2014,04,30,01,33,8.40
2014,04,30,01,34,8.40
2014,04,30,01,35,8.40
2014,04,30,01,36,8.40
2014,04,30,01,37,8.40
2014,04,30,01,38,8.40
2014,04,30,01,39,8.40
2014,04,30,01,40,8.40
2014,04,30,01,41,8.40
2014,04,30,01,42,8.40
2014,04,30,01,43,8.40
2014,04,30,01,44,8.40
2014,04,30,01,45,8.40
2014,04,30,01,46,8.40
2014,04,30,01,47,8.40
2014,04,30,01,48,8.40
2014,04,30,01,49,8.40
2014,04,30,01,50,8.40
2014,04,30,01,51,8.40
2014,04,30,01,52,8.40
2014,04,30,01,53,8.40
2014,04,30,01,54,8.40
2014,04,30,01,55,8.40
2014,04,30,01,56,8.40
2014,04,30,01,57,8.40
2014,04,30,01,58,8.40
2014,04,30,01,59,8.40
2014,04,30,02,00,8.40
2014,04,30,02,01,8.40
2014,04,30,02,02,8.40
2014,04,30,02,03,8.40
2014,04,30,02,04,8.40
2014,04,30,02,05,8.40
2014,04,30,02,06,8.40
2014,04,30,02,07,8.40
2014,04,30,02,08,8.40
2014,04,30,02,09,8.40
2014,04,30,02,10,8.40
2014,04,30,02,11,8.40
2014,04,30,02,12,8.40
2014,04,30,02,13,8.40
2014,04,30,02,14,8.40
2014,04,30,02,15,8.40
2014,04,30,02,16,8.30
2014,04,30,02,17,8.30
2014,04,30,02,18,8.30
2014,04,30,02,19,8.30
2014,04,30,02,20,8.30
2014,04,30,02,21,8.30
2014,04,30,02,22,8.30
2014,04,30,02,23,8.30
2014,04,30,02,24,8.30
2014,04,30,02,25,8.30
2014,04,30,02,26,8.30
2014,04,30,02,27,8.30
2014,04,30,02,28,8.30
2014,04,30,02,29,8.30
2014,04,30,02,30,8.30
2014,04,30,02,31,8.30
2014,04,30,02,32,8.30
2014,04,30,02,33,8.30
2014,04,30,02,34,8.30
2014,04,30,02,35,8.30
2014,04,30,02,36,8.30
2014,04,30,02,37,8.30
2014,04,30,02,38,8.30
2014,04,30,02,39,8.30
2014,04,30,02,40,8.30
2014,04,30,02,41,8.30
2014,04,30,02,42,8.30
2014,04,30,02,43,8.30
2014,04,30,02,44,8.30
2014,04,30,02,45,8.30
2014,04,30,02,46,8.30
2014,04,30,02,47,8.40
2014,04,30,02,48,8.40
2014,04,30,02,49,8.40
2014,04,30,02,50,8.40
2014,04,30,02,51,8.40
2014,04,30,02,52,8.40
2014,04,30,02,53,8.40
2014,04,30,02,54,8.40
2014,04,30,02,55,8.50
2014,04,30,02,56,8.50
2014,04,30,02,57,8.50
2014,04,30,02,58,8.60
2014,04,30,02,59,8.60
2014,04,30,03,00,8.60
2014,04,30,03,01,8.70
2014,04,30,03,02,8.70
2014,04,30,03,03,8.70
2014,04,30,03,04,8.70
2014,04,30,03,05,8.70
2014,04,30,03,06,8.70
2014,04,30,03,07,8.80
2014,04,30,03,08,8.80
2014,04,30,03,09,8.80
2014,04,30,03,10,8.80
2014,04,30,03,11,8.80
2014,04,30,03,12,8.80
2014,04,30,03,13,8.80
2014,04,30,03,14,8.80
2014,04,30,03,15,8.90
2014,04,30,03,16,8.90
2014,04,30,03,17,8.90
2014,04,30,03,18,8.90
2014,04,30,03,19,8.90
2014,04,30,03,20,8.90
2014,04,30,03,21,8.90
2014,04,30,03,22,8.90
2014,04,30,03,23,8.90
2014,04,30,03,24,9.00
2014,04,30,03,25,9.00
2014,04,30,03,26,9.00
2014,04,30,03,27,9.00
2014,04,30,03,28,9.00
2014,04,30,03,29,9.00
2014,04,30,03,30,9.00
2014,04,30,03,31,9.00
2014,04,30,03,32,9.00
2014,04,30,03,33,9.00
2014,04,30,03,34,9.00
2014,04,30,03,35,9.00
2014,04,30,03,36,9.10
2014,04,30,03,37,9.10
2014,04,30,03,38,9.10
2014,04,30,03,39,9.00
2014,04,30,03,40,9.10
2014,04,30,03,41,9.00
2014,04,30,03,42,9.10
2014,04,30,03,43,9.00
2014,04,30,03,44,9.00
2014,04,30,03,45,9.10
2014,04,30,03,46,9.10
2014,04,30,03,47,9.00
2014,04,30,03,48,9.00
2014,04,30,03,49,9.00
2014,04,30,03,50,9.00
2014,04,30,03,51,9.00
2014,04,30,03,52,9.00
2014,04,30,03,53,9.00
2014,04,30,03,54,9.00
2014,04,30,03,55,9.00
2014,04,30,03,56,9.00
2014,04,30,03,57,8.90
2014,04,30,03,58,8.90
2014,04,30,03,59,8.90
2014,04,30,04,00,8.90
2014,04,30,04,01,8.90
2014,04,30,04,02,8.90
2014,04,30,04,03,8.90
2014,04,30,04,04,8.80
2014,04,30,04,05,8.80
2014,04,30,04,06,8.80
2014,04,30,04,07,8.80
2014,04,30,04,08,8.80
2014,04,30,04,09,8.80
2014,04,30,04,10,8.80
2014,04,30,04,11,8.80
2014,04,30,04,12,8.70
2014,04,30,04,13,8.70
2014,04,30,04,14,8.70
2014,04,30,04,15,8.70
2014,04,30,04,16,8.70
2014,04,30,04,17,8.70
2014,04,30,04,18,8.70
2014,04,30,04,19,8.60
2014,04,30,04,20,8.60
2014,04,30,04,21,8.60
2014,04,30,04,22,8.60
2014,04,30,04,23,8.60
2014,04,30,04,24,8.60
2014,04,30,04,25,8.60
2014,04,30,04,26,8.60
2014,04,30,04,27,8.60
2014,04,30,04,28,8.60
2014,04,30,04,29,8.60
2014,04,30,04,30,8.60
2014,04,30,04,31,8.60
2014,04,30,04,32,8.50
2014,04,30,04,33,8.50
2014,04,30,04,34,8.50
2014,04,30,04,35,8.50
2014,04,30,04,36,8.50
2014,04,30,04,37,8.50
2014,04,30,04,38,8.50
2014,04,30,04,39,8.50
2014,04,30,04,40,8.50
2014,04,30,04,41,8.50
2014,04,30,04,42,8.50
2014,04,30,04,43,8.50
2014,04,30,04,44,8.50
2014,04,30,04,45,8.50
2014,04,30,04,46,8.50
2014,04,30,04,47,8.50
2014,04,30,04,48,8.50
2014,04,30,04,49,8.50
2014,04,30,04,50,8.50
2014,04,30,04,51,8.50
2014,04,30,04,52,8.50
2014,04,30,04,53,8.50
2014,04,30,04,54,8.50
2014,04,30,04,55,8.50
2014,04,30,04,56,8.50
2014,04,30,04,57,8.50
2014,04,30,04,58,8.50
2014,04,30,04,59,8.50
2014,04,30,05,00,8.50
2014,04,30,05,01,8.60
2014,04,30,05,02,8.60
2014,04,30,05,03,8.60
2014,04,30,05,04,8.60
2014,04,30,05,05,8.60
2014,04,30,05,06,8.60
2014,04,30,05,07,8.60
2014,04,30,05,08,8.60
2014,04,30,05,09,8.60
2014,04,30,05,10,8.60
2014,04,30,05,11,8.60
2014,04,30,05,12,8.60
2014,04,30,05,13,8.60
2014,04,30,05,14,8.60
2014,04,30,05,15,8.60
2014,04,30,05,16,8.60
2014,04,30,05,17,8.60
2014,04,30,05,18,8.60
2014,04,30,05,19,8.60
2014,04,30,05,20,8.60
2014,04,30,05,21,8.60
2014,04,30,05,22,8.60
2014,04,30,05,23,8.60
2014,04,30,05,24,8.60
2014,04,30,05,25,8.60
2014,04,30,05,26,8.60
2014,04,30,05,27,8.60
2014,04,30,05,28,8.60
2014,04,30,05,29,8.60
2014,04,30,05,30,8.60
2014,04,30,05,31,8.60
2014,04,30,05,32,8.60
2014,04,30,05,33,8.60
2014,04,30,05,34,8.60
2014,04,30,05,35,8.70
2014,04,30,05,36,8.70
2014,04,30,05,37,8.70
2014,04,30,05,38,8.70
2014,04,30,05,39,8.70
2014,04,30,05,40,8.70
2014,04,30,05,41,8.70
2014,04,30,05,42,8.70
2014,04,30,05,43,8.70
2014,04,30,05,44,8.70
2014,04,30,05,45,8.70
2014,04,30,05,46,8.80
2014,04,30,05,47,8.80
2014,04,30,05,48,8.80
2014,04,30,05,49,8.80
2014,04,30,05,50,8.80
2014,04,30,05,51,8.80
2014,04,30,05,52,8.80
2014,04,30,05,53,8.80
2014,04,30,05,54,8.80
2014,04,30,05,55,8.90
2014,04,30,05,56,8.90
2014,04,30,05,57,8.90
2014,04,30,05,58,8.90
2014,04,30,05,59,8.90
2014,04,30,06,00,8.90
2014,04,30,06,01,8.90
2014,04,30,06,02,8.90
2014,04,30,06,03,8.90
2014,04,30,06,04,8.90
2014,04,30,06,05,8.90
2014,04,30,06,06,8.80
2014,04,30,06,07,8.80
2014,04,30,06,08,8.80
2014,04,30,06,09,8.80
2014,04,30,06,10,8.80
2014,04,30,06,11,8.80
2014,04,30,06,12,8.80
2014,04,30,06,13,8.80
2014,04,30,06,14,8.80
2014,04,30,06,15,8.80
2014,04,30,06,16,8.80
2014,04,30,06,17,8.80
2014,04,30,06,18,8.70
2014,04,30,06,19,8.70
2014,04,30,06,20,8.70
2014,04,30,06,21,8.70
2014,04,30,06,22,8.70
2014,04,30,06,23,8.70
2014,04,30,06,24,8.70
2014,04,30,06,25,8.70
2014,04,30,06,26,8.70
2014,04,30,06,27,8.70
2014,04,30,06,28,8.70
2014,04,30,06,29,8.70
2014,04,30,06,30,8.70
2014,04,30,06,31,8.70
2014,04,30,06,32,8.70
2014,04,30,06,33,8.70
2014,04,30,06,34,8.70
2014,04,30,06,35,8.70
2014,04,30,06,36,8.70
2014,04,30,06,37,8.80
2014,04,30,06,38,8.80
2014,04,30,06,39,8.80
2014,04,30,06,40,8.80
2014,04,30,06,41,8.80
2014,04,30,06,42,8.80
2014,04,30,06,43,8.80
2014,04,30,06,44,8.80
2014,04,30,06,45,8.90
2014,04,30,06,46,8.90
2014,04,30,06,47,8.90
2014,04,30,06,48,8.90
2014,04,30,06,49,8.90
2014,04,30,06,50,9.00
2014,04,30,06,51,9.00
2014,04,30,06,52,9.00
2014,04,30,06,53,9.00
2014,04,30,06,54,9.10
2014,04,30,06,55,9.10
2014,04,30,06,56,9.20
2014,04,30,06,57,9.20
2014,04,30,06,58,9.20
2014,04,30,06,59,9.20
2014,04,30,07,00,9.20
2014,04,30,07,01,9.30
2014,04,30,07,02,9.30
2014,04,30,07,03,9.30
2014,04,30,07,04,9.30
2014,04,30,07,05,9.40
2014,04,30,07,06,9.40
2014,04,30,07,07,9.40
2014,04,30,07,08,9.40
2014,04,30,07,09,9.50
2014,04,30,07,10,9.50
2014,04,30,07,11,9.60
2014,04,30,07,12,9.60
2014,04,30,07,13,9.60
2014,04,30,07,14,9.70
2014,04,30,07,15,9.70
2014,04,30,07,16,9.70
2014,04,30,07,17,9.80
2014,04,30,07,18,9.80
2014,04,30,07,19,9.80
2014,04,30,07,20,9.80
2014,04,30,07,21,9.90
2014,04,30,07,22,9.90
2014,04,30,07,23,9.90
2014,04,30,07,24,10.00
2014,04,30,07,25,10.00
2014,04,30,07,26,10.00
2014,04,30,07,27,10.00
2014,04,30,07,28,10.10
2014,04,30,07,29,10.10
2014,04,30,07,30,10.10
2014,04,30,07,31,10.20
2014,04,30,07,32,10.20
2014,04,30,07,33,10.20
2014,04,30,07,34,10.20
2014,04,30,07,35,10.30
2014,04,30,07,36,10.30
2014,04,30,07,37,10.30
2014,04,30,07,38,10.40
2014,04,30,07,39,10.40
2014,04,30,07,40,10.40
2014,04,30,07,41,10.40
2014,04,30,07,42,10.50
2014,04,30,07,43,10.50
2014,04,30,07,44,10.50
2014,04,30,07,45,10.60
2014,04,30,07,46,10.60
2014,04,30,07,47,10.70
2014,04,30,07,48,10.70
2014,04,30,07,49,10.80
2014,04,30,07,50,10.80
2014,04,30,07,51,10.80
2014,04,30,07,52,10.90
2014,04,30,07,53,10.90
2014,04,30,07,54,11.00
2014,04,30,07,55,11.00
2014,04,30,07,56,11.10
2014,04,30,07,57,11.10
2014,04,30,07,58,11.20
2014,04,30,07,59,11.20
2014,04,30,08,00,11.20
2014,04,30,08,01,11.30
2014,04,30,08,02,11.30
2014,04,30,08,03,11.30
2014,04,30,08,04,11.40
2014,04,30,08,05,11.40
2014,04,30,08,06,11.50
2014,04,30,08,07,11.50
2014,04,30,08,08,11.60
2014,04,30,08,09,11.60
2014,04,30,08,10,11.70
2014,04,30,08,11,11.70
2014,04,30,08,12,11.80
2014,04,30,08,13,11.80
2014,04,30,08,14,11.90
2014,04,30,08,15,11.90
2014,04,30,08,16,12.00
2014,04,30,08,17,12.00
2014,04,30,08,18,12.00
2014,04,30,08,19,12.00
2014,04,30,08,20,12.10
2014,04,30,08,21,12.10
2014,04,30,08,22,12.10
2014,04,30,08,23,12.10
2014,04,30,08,24,12.20
2014,04,30,08,25,12.20
2014,04,30,08,26,12.30
2014,04,30,08,27,12.30
2014,04,30,08,28,12.30
2014,04,30,08,29,12.40
2014,04,30,08,30,12.40
2014,04,30,08,31,12.50
2014,04,30,08,32,12.50
2014,04,30,08,33,12.60
2014,04,30,08,34,12.60
2014,04,30,08,35,12.60
2014,04,30,08,36,12.70
2014,04,30,08,37,12.80
2014,04,30,08,38,12.80
2014,04,30,08,39,12.90
2014,04,30,08,40,12.90
2014,04,30,08,41,13.00
2014,04,30,08,42,13.10
2014,04,30,08,43,13.10
2014,04,30,08,44,13.20
2014,04,30,08,45,13.20
2014,04,30,08,46,13.30
2014,04,30,08,47,13.30
2014,04,30,08,48,13.40
2014,04,30,08,49,13.40
2014,04,30,08,50,13.40
2014,04,30,08,51,13.40
2014,04,30,08,52,13.50
2014,04,30,08,53,13.50
2014,04,30,08,54,13.60
2014,04,30,08,55,13.60
2014,04,30,08,56,13.60
2014,04,30,08,57,13.70
2014,04,30,08,58,13.70
2014,04,30,08,59,13.70
2014,04,30,09,00,13.80
2014,04,30,09,01,13.80
2014,04,30,09,02,13.80
2014,04,30,09,03,13.90
2014,04,30,09,04,13.90
2014,04,30,09,05,13.90
2014,04,30,09,06,13.90
2014,04,30,09,07,13.90
2014,04,30,09,08,13.90
2014,04,30,09,09,13.90
2014,04,30,09,10,13.90
2014,04,30,09,11,13.90
2014,04,30,09,12,13.90
2014,04,30,09,13,13.90
2014,04,30,09,14,13.90
2014,04,30,09,15,13.90
2014,04,30,09,16,13.90
2014,04,30,09,17,13.90
2014,04,30,09,18,13.90
2014,04,30,09,19,13.90
2014,04,30,09,20,13.90
2014,04,30,09,21,13.80
2014,04,30,09,22,13.80
2014,04,30,09,23,13.80
2014,04,30,09,24,13.70
2014,04,30,09,25,13.70
2014,04,30,09,26,13.70
2014,04,30,09,27,13.70
2014,04,30,09,28,13.60
2014,04,30,09,29,13.60
2014,04,30,09,30,13.60
2014,04,30,09,31,13.60
2014,04,30,09,32,13.60
2014,04,30,09,33,13.60
2014,04,30,09,34,13.60
2014,04,30,09,35,13.60
2014,04,30,09,36,13.60
2014,04,30,09,37,13.60
2014,04,30,09,38,13.60
2014,04,30,09,39,13.60
2014,04,30,09,40,13.60
2014,04,30,09,41,13.60
2014,04,30,09,42,13.60
2014,04,30,09,43,13.60
2014,04,30,09,44,13.60
2014,04,30,09,45,13.60
2014,04,30,09,46,13.70
2014,04,30,09,47,13.70
2014,04,30,09,48,13.70
2014,04,30,09,49,13.80
2014,04,30,09,50,13.80
2014,04,30,09,51,13.80
2014,04,30,09,52,13.80
2014,04,30,09,53,13.80
2014,04,30,09,54,13.80
2014,04,30,09,55,13.90
2014,04,30,09,56,13.90
2014,04,30,09,57,13.90
2014,04,30,09,58,13.90
2014,04,30,09,59,13.90
2014,04,30,10,00,13.90
2014,04,30,10,01,13.90
2014,04,30,10,02,13.90
2014,04,30,10,03,13.90
2014,04,30,10,04,13.90
2014,04,30,23,56,14.20
2014,04,30,23,57,14.20
2014,04,30,23,58,14.20
2014,04,30,23,59,14.20
